Regional Weather Roundup
Issued by NWS

Home | Current Version | Previous Version | Text Only | Print | Product List | Glossary Off
Versions: 1 2 3 4 5 6 7 8 9 10 11 12 13 14 15 16 17 18 19 20 21 22 23 24 25 26 27 28 29 30 31 32 33 34 35 36 37 38 39 40 41 42 43 44 45 46 47 48 49 50

000
ASUS45 KTFX 280219
RWRMT
MONTANA HOURLY WEATHER ROUNDUP
NATIONAL WEATHER SERVICE GREAT FALLS MT
719 PM MST TUE JAN 27 2015

NOTE: "FAIR" INDICATES FEW OR NO CLOUDS BELOW 12000 FEET WITH NO
SIGNIFICANT WEATHER AND/OR OBSTRUCTIONS TO VISIBILITY.

* THESE STATIONS ARE NOT UNDER NWS QUALITY CONTROL. THEY DO NOT
   REPORT WEATHER SUCH AS PRECIPITATION OR FOG.

MTZ001>007-043-280300-
WEST OF THE DIVIDE
CITY           SKY/WX    TMP DP  RH WIND       PRES   REMARKS
KALISPELL      FOG       25  25 100 CALM      29.95R
MISSOULA       CLOUDY    34  30  85 CALM      30.01R
BUTTE          PTCLDY    34  28  79 SE5       29.99R WCI  29
MULLAN PASS    MOCLDY    37  27  67 SW7       30.00S WCI  32
* ANACONDA     PTCLDY    39  30  70 SW6        N/A   WCI  35
* ESSEX        N/A       32  27  82 NW1        N/A
* EUREKA APT   PTCLDY    36  30  79 CALM      29.95R
* HAMILTON APT CLOUDY    39  32  76 SE3       30.00R
* LIBBY APT    CLEAR     28  28 100 NW3       30.00R VSB M1/4
* LINCOLN      N/A       43  27  53 W2         N/A
* LOOKOUT PASS N/A       39  31  73 NW4        N/A
* POLSON       N/A       40  30  68 SE1        N/A
* RONAN APT    MOCLDY    34  34 100 N/A        N/A
* SEELEY LAKE  N/A       32  27  82 N/A        N/A
* THOMP F APT  MOCLDY    34  30  85 SE3G11     N/A
* YAAK HILL    N/A       33  30  89 N/A        N/A
$$

MTZ008-052>055-280300-
SOUTHWEST MONTANA
CITY           SKY/WX    TMP DP  RH WIND       PRES   REMARKS
BOZEMAN        CLOUDY    36  30  79 CALM      29.97R
DILLON         CLOUDY    43  28  56 S5        29.99R
* W YELLOWSTON CLOUDY    35  31  85 SW2G10     N/A
* THREE FORKS  CLOUDY    50  48  93 SW8        N/A
* BOULDER HILL N/A       43  23  45 S6         N/A
* MONIDA PASS  N/A       33  31  92 SE17G23    N/A   WCI  22
* RAYNOLDS PAS N/A       38  21  50 SE13G23    N/A   WCI  30
* WHITEHALL    N/A       49  30  48 W6G11      N/A
* WISE RIVER   N/A       34  25  70 W7         N/A   WCI  28
$$

MTZ009>010-012-014-046-048-049-054-280300-
EAST SLOPES AND CENTRAL MONTANA
CITY           SKY/WX    TMP DP  RH WIND       PRES   REMARKS
CUT BANK       CLOUDY    50  23  35 W17G25    29.83S
GREAT FALLS    MOCLDY    52  27  38 SW15      29.84S
HELENA         MOCLDY    41  32  70 W5        29.94R
MALMSTROM AFB  MOCLDY    52  27  38 SW14      29.84S
* CONRAD       CLOUDY    52  25  35 CALM       N/A
* DEARBORN     N/A       57  24  28 S11        N/A
* EAST GLACIER N/A       44  19  37 N6         N/A
* MONARCH      N/A       49  17  28 S10G16     N/A
* PENDROY      N/A       53  22  30 NW16       N/A
* ROGERS PASS  N/A       47  23  39 E8G16      N/A
* SWEET GRASS  N/A       49  23  36 W15G22     N/A
* WHITE SULPH  N/A       45  26  47 S8G15      N/A
$$

MTZ011-013-016-021-035-040-045-047-050-051-280300-
NORTH CENTRAL MONTANA
CITY           SKY/WX    TMP DP  RH WIND       PRES   REMARKS
HAVRE          CLOUDY    41  34  76 SW9       29.79R
LEWISTOWN      CLOUDY    43  30  60 S9        29.85S
* N BAR RANCH  CLEAR     48  25  41 CALM      29.87R
* CHINOOK      CLOUDY    39  34  82 CALM      29.78S
* CHESTER      N/A       44  27  51 NW4G9      N/A
* DENTON       N/A       46  24  42 SW9        N/A
* GEYSER       N/A       53  22  30 SW16G22    N/A
* JUDITH GAP   N/A       50  24  36 SE4        N/A
* LOMA         N/A       52  33  48 SW14       N/A
$$

MTZ017>020-022>027-061-062-280300-
NORTHEAST MONTANA
CITY           SKY/WX    TMP DP  RH WIND       PRES   REMARKS
GLASGOW        CLOUDY    39  32  76 E3        29.77S
GLENDIVE       PTCLDY    37  30  76 SW6       29.80S WCI  32
JORDAN         MOCLDY    34  30  85 CALM      29.79F
SIDNEY         MOCLDY    34  30  85 CALM      29.79F
WOLF POINT     CLOUDY    36  34  92 CALM      29.78S
* BEAVER HILL  N/A       47  33  58 S12        N/A
* CIRCLE       N/A       39  33  79 N/A        N/A
* LINDSAY DVD  N/A       43  30  60 S5         N/A
* NAVAJO       N/A       39  32  76 W12        N/A   WCI  32
* PLENTYWOOD A MOCLDY    45  36  71 NE5       29.77F
* POPLAR APT   MOCLDY    41  36  82 N/A       29.77S
* SACO         N/A       40  35  82 E4         N/A
$$

MTZ028>042-056>058-280300-
SOUTHCENTRAL AND SOUTHEAST MONTANA
CITY           SKY/WX    TMP DP  RH WIND       PRES   REMARKS
BAKER          CLOUDY    39  30  70 CALM      29.82S
BILLINGS       CLOUDY    52  28  40 W12       29.86F
LIVINGSTON     CLOUDY    54  28  37 SW20G41   29.92R
MILES CITY     MOCLDY    52  34  50 S5        29.80S
* BIG TIMBER A CLOUDY    54  28  37 SW15      29.93R
* FORSYTH APT  MOCLDY    52  32  47 CALM      29.81R
* LAUREL APT   CLOUDY    48  25  41 N/A        N/A
* ROUNDUP APT  CLOUDY    52  28  40 S6         N/A
* ALZADA       N/A       47  31  54 NW2        N/A
* HYSHAM       N/A       54  25  33 W4         N/A
* REED POINT   N/A       45  31  58 E2         N/A
* ROSCOE HILL  N/A       55  16  21 SW14G23    N/A
$$

REGIONAL REPORTS...DAKOTAS
CITY           SKY/WX    TMP DP  RH WIND       PRES   REMARKS
WILLISTON      PTCLDY    30  28  92 CALM      29.78S
DICKINSON      PTCLDY    37  32  82 S7        29.78S WCI  32
BEACH          CLEAR     34  32  92 S5        29.81S WCI  29
CROSBY         CLEAR     32  32 100 N5        29.79F WCI  27
TIOGA          CLEAR     32  32 100 SW5       29.80S WCI  27
WATFORD CITY   CLEAR     37  34  89 CALM      29.75F
BISMARCK       MOCLDY    36  32  85 E6        29.80F WCI  31
GRAND FORKS    CLOUDY    32  28  85 S16G24    29.93S WCI  21
FARGO          CLOUDY    34  28  79 S15       29.96S WCI  24
BUFFALO SD     CLOUDY    52  30  43 W3        29.76F
RAPID CITY     CLOUDY    46  28  50 NW5       29.84S
$$

REGIONAL REPORTS...WYOMING/IDAHO/WASHINGTON
CITY           SKY/WX    TMP DP  RH WIND       PRES   REMARKS
GILLETTE       CLEAR     46  30  54 VRB3      29.87F
SHERIDAN       MOCLDY    37  28  70 CALM      29.87S
CODY           CLOUDY    55  25  31 W14G21    29.96R
YELLOWSTONE LA MOCLDY    36  27  70 CALM      30.16F
SALMON         CLOUDY   N/A N/A N/A N3        30.09R
MULLAN PASS    MOCLDY    37  27  67 SW7       30.00S WCI  32
SAND POINT     FOG      N/A N/A N/A CALM      30.03R VSB M1/4
SPOKANE        MOCLDY    37  36  96 S5        30.01R WCI  33
$$

REGIONAL REPORTS...ALBERTA
CITY           SKY/WX    TMP DP  RH WIND       PRES   REMARKS
CALGARY        PTCLDY    45  25  45 NW9       29.76S
LETHBRIDGE     MOCLDY    52  21  30 W25G33    29.77R
MEDICINE HAT   CLOUDY    41  34  76 SW8       29.74S
EDMONTON       FOG       32  30  92 S5        29.80R VSB 2    WCI  27
WATERTON GATE  N/A       46  16  30 W8         N/A
CARDSTON       N/A       41  23  49 NW5        N/A
MILK RIVER     N/A       45  28  51 NW12       N/A
$$

REGIONAL REPORTS...SASKATCHEWAN
CITY           SKY/WX    TMP DP  RH WIND       PRES   REMARKS
SWIFT CURRENT  CLOUDY    34  32  92 SE7       29.73S WCI  28
REGINA         MOCLDY    28  27  96 E3        29.79S
VAL MARIE      N/A       34  30  85 SW5        N/A   WCI  29
ASSINIBOIA     N/A       32  30  92 S5         N/A   WCI  27
CORONACH       N/A       36  32  85 NE3        N/A

$$



USA.gov is the U.S. government's official web portal to all federal, state and local government web resources and services.